GOOD ANCESTOR KILAKILA

Satellite information

Favourite Embed

Satellite Type and Status

PAYLOADIN ORBIT

Key statistics

Satellite GOOD ANCESTOR KILAKILA at a glance.

Uptime

174

Days in orbit

Revolutions

≈ 15.2

Per day

Orbit

SSO

Sun Synchronous Orbit

Inclination

97.4

Latest

Satellite identification and parameters

Extended collection of information and parameters for GOOD ANCESTOR KILAKILA.

Object identification

Identified? True

Debris? False

Object name: GOOD ANCESTOR KILAKILA

International designator: 2025-135A

Object number (NORAD): 64528

Object ID (CCSDS): 64528

Country: Solomon Islands (SLB)

Current information (Y/N): Y

RCS size: SMALL

Orbital parameters

Period: 94.717 minutes

Inclination: 97.4498 deg

SMA: 6882.995 km

Apoapsis: 509.254 km

Periapsis: 500.465 km

RAAN: 99.3362 deg

Eccentricy: 0.00063847

Argument of periapsis: 110.2172 deg

Mean anomaly: 249.975 deg

Mean motion: 15.20325659 rev/day

Mean motion (dot): 0.00011148 rev/day2

B* drag term: 0.00051524241 1/REarth

Two-line elements (TLE)

Creation date: Dec. 14, 2025, 3:07 a.m.

Reference frame: TEME

Reference center: EARTH

Epoch: Dec. 13, 2025, 1:15 p.m. UTC

TLE line 0: 0 GOOD ANCESTOR KILAKILA

TLE line 1: 1 64528U 25135A 25347.55245095 .00011148 00000-0 51524-3 0 9992

TLE line 2: 2 64528 97.4498 99.3362 0006385 110.2172 249.9750 15.20325659 26648

Live tracking on map

Real-time ground track for satellite GOOD ANCESTOR KILAKILA.

In-orbit conjunctions

There are no conjunctions computed for GOOD ANCESTOR KILAKILA, at the moment. Check back to stay up to date, as we update our databases every day.

Go to all conjunctions

Associated space launch

Dedicated rideshare flight to a sun-synchronous orbit with dozens of small microsatellites and nanosatellites for commercial and government customers.

GOOD ANCESTOR KILAKILA was lifted into orbit during the mission ‘Falcon 9 Block 5 | Transporter 14 (Dedicated SSO Rideshare)’, on board a Falcon 9 space rocket.

The launch took place on June 23, 2025, 9:25 p.m. from Space Launch Complex 4E.

For more information about the launch, click the button.

Launch to space Falcon 9 Block 5 | Transporter 14 (Dedicated SSO Rideshare)
Falcon 9 Block 5 | Transporter 14 (Dedicated SSO Rideshare)

Agency: SpaceX

Status: Launch Successful

Launch date: June 23, 2025, 9:25 p.m. UTC

Rocket: Falcon 9

Launch pad: Space Launch Complex 4E

Location: Vandenberg SFB, CA, USA

...

Latest news about this satellite

News about space launch
The Exploration Company still studying Mission Possible reentry

The Exploration Company is still studying what happened in the final phases of a test flight three months ago that resulted in the loss of the spacecraft. The post The Exploration Company still studying Mission Possible reentry appeared first on SpaceNew...

News about space launch
A European spacecraft company flies its vehicle, then loses it after reentry

"This partial success reflects both ambition and the inherent risks of innovation."

News about space launch
The Exploration Company claims partial success of Mission Possible reentry spacecraft

The Exploration Company said it achieved “partial success” on a test flight of a reentry capsule but lost the spacecraft before it splashed down. The post The Exploration Company claims partial success of Mission Possible reentry spacecraft appeared firs...


Newsletter sign-up

Weekly statistics, charts and insights to help you stay on top of the space industry.